| time (UTC) | temp F | wind direction | speed MPH | gust MPH | rain 1hr in | rain 24hr in | rain mn in | humidity % | barometer mb |
| 20260904154844 | 94 | 22 | 3.0 | 4.0 | 0.00 | 0.00 | 0.00 | 31 | 1016.9 |
| 20260904154643 | 94 | 0 | 3.0 | 4.0 | 0.00 | 0.00 | 0.00 | 32 | 1016.9 |
| 20260904154443 | 94 | 22 | 4.0 | 8.0 | 0.00 | 0.00 | 0.00 | 31 | 1016.9 |
| 20260904154243 | 95 | 68 | 2.0 | 2.0 | 0.00 | 0.00 | 0.00 | 31 | 1016.8 |
| 20260904153844 | 96 | 22 | 2.0 | 2.0 | 0.00 | 0.00 | 0.00 | 30 | 1016.8 |
| 20260904153643 | 96 | 315 | 2.0 | 4.0 | 0.00 | 0.00 | 0.00 | 30 | 1016.9 |
| 20260904153443 | 95 | 292 | 2.0 | 4.0 | 0.00 | 0.00 | 0.00 | 30 | 1016.7 |
| 20260904153242 | 95 | 338 | 2.0 | 6.0 | 0.00 | 0.00 | 0.00 | 29 | 1016.9 |
| 20260904153049 | 95 | 248 | 4.0 | 7.0 | 0.00 | 0.00 | 0.00 | 29 | 1016.9 |
| 20260904152843 | 95 | 0 | 2.0 | 4.0 | 0.00 | 0.00 | 0.00 | 30 | 1016.6 |
| 20260904152642 | 95 | 315 | 2.0 | 4.0 | 0.00 | 0.00 | 0.00 | 29 | 1016.6 |
| 20260904152443 | 95 | 0 | 2.0 | 4.0 | 0.00 | 0.00 | 0.00 | 29 | 1016.8 |
| 20260904152243 | 95 | 45 | 3.0 | 4.0 | 0.00 | 0.00 | 0.00 | 30 | 1017.0 |
| 20260904151641 | 95 | 22 | 2.0 | 2.0 | 0.00 | 0.00 | 0.00 | 30 | 1016.9 |
| 20260904151442 | 95 | 0 | 4.0 | 8.0 | 0.00 | 0.00 | 0.00 | 30 | 1016.9 |
| 20260904151243 | 95 | 22 | 4.0 | 7.0 | 0.00 | 0.00 | 0.00 | 31 | 1016.7 |
| 20260904151050 | 95 | 0 | 2.0 | 6.0 | 0.00 | 0.00 | 0.00 | 30 | 1016.9 |
| 20260904150843 | 95 | 0 | 4.0 | 7.0 | 0.00 | 0.00 | 0.00 | 30 | 1016.6 |
| 20260904150642 | 96 | 22 | 4.0 | 9.0 | 0.00 | 0.00 | 0.00 | 30 | 1016.9 |
| 20260904150444 | 96 | 315 | 2.0 | 4.0 | 0.00 | 0.00 | 0.00 | 30 | 1016.7 |
| 20260904150242 | 96 | 315 | 2.0 | 4.0 | 0.00 | 0.00 | 0.00 | 30 | 1016.7 |
| 20260904150051 | 96 | 68 | 2.0 | 4.0 | 0.00 | 0.00 | 0.00 | 30 | 1016.8 |
| 20260904145842 | 96 | 22 | 2.0 | 7.0 | 0.00 | 0.00 | 0.00 | 30 | 1016.6 |
| 20260904145643 | 96 | 0 | 3.0 | 7.0 | 0.00 | 0.00 | 0.00 | 30 | 1016.7 |
| 20260904145242 | 96 | 315 | 3.0 | 4.0 | 0.00 | 0.00 | 0.00 | 31 | 1016.7 |
| 20260904144843 | 96 | 315 | 3.0 | 4.0 | 0.00 | 0.00 | 0.00 | 31 | 1016.8 |
| 20260904144642 | 96 | 248 | 2.0 | 4.0 | 0.00 | 0.00 | 0.00 | 31 | 1016.7 |
| 20260904144441 | 96 | 315 | 3.0 | 7.0 | 0.00 | 0.00 | 0.00 | 30 | 1016.5 |
| 20260904144243 | 96 | 338 | 5.0 | 8.0 | 0.00 | 0.00 | 0.00 | 30 | 1016.7 |
| 20260904144049 | 97 | 22 | 2.0 | 6.0 | 0.00 | 0.00 | 0.00 | 29 | 1016.7 |
| 20260904143844 | 97 | 270 | 2.0 | 6.0 | 0.00 | 0.00 | 0.00 | 30 | 1016.6 |
| 20260904143643 | 96 | 248 | 4.0 | 7.0 | 0.00 | 0.00 | 0.00 | 31 | 1016.6 |
| 20260904143442 | 96 | 292 | 3.0 | 7.0 | 0.00 | 0.00 | 0.00 | 30 | 1016.7 |
| 20260904143243 | 96 | 315 | 3.0 | 7.0 | 0.00 | 0.00 | 0.00 | 32 | 1016.6 |
| 20260904142842 | 96 | 292 | 4.0 | 8.0 | 0.00 | 0.00 | 0.00 | 32 | 1016.6 |
| 20260904142642 | 96 | 292 | 4.0 | 7.0 | 0.00 | 0.00 | 0.00 | 31 | 1016.6 |
| 20260904142443 | 97 | 315 | 3.0 | 6.0 | 0.00 | 0.00 | 0.00 | 31 | 1016.5 |
| 20260904142244 | 97 | 315 | 2.0 | 4.0 | 0.00 | 0.00 | 0.00 | 30 | 1016.4 |
| 20260904142047 | 96 | 0 | 2.0 | 4.0 | 0.00 | 0.00 | 0.00 | 30 | 1016.6 |
| 20260904141841 | 96 | 338 | 4.0 | 6.0 | 0.00 | 0.00 | 0.00 | 31 | 1016.6 |
| 20260904141642 | 96 | 68 | 6.0 | 11.0 | 0.00 | 0.00 | 0.00 | 31 | 1016.6 |
| 20260904141443 | 97 | 338 | 4.0 | 9.0 | 0.00 | 0.00 | 0.00 | 31 | 1016.4 |
| 20260904141244 | 97 | 45 | 3.0 | 7.0 | 0.00 | 0.00 | 0.00 | 31 | 1016.6 |
| 20260904141050 | 96 | 292 | 4.0 | 8.0 | 0.00 | 0.00 | 0.00 | 31 | 1016.5 |
| 20260904140843 | 96 | 45 | 3.0 | 6.0 | 0.00 | 0.00 | 0.00 | 31 | 1016.8 |
| 20260904140642 | 97 | 45 | 4.0 | 8.0 | 0.00 | 0.00 | 0.00 | 30 | 1016.6 |
| 20260904140442 | 97 | 68 | 5.0 | 9.0 | 0.00 | 0.00 | 0.00 | 30 | 1016.4 |
| 20260904140243 | 97 | 292 | 4.0 | 8.0 | 0.00 | 0.00 | 0.00 | 30 | 1016.5 |
| 20260904140051 | 97 | 45 | 4.0 | 7.0 | 0.00 | 0.00 | 0.00 | 30 | 1016.6 |
| 20260904135842 | 97 | 338 | 4.0 | 8.0 | 0.00 | 0.00 | 0.00 | 29 | 1016.4 |
| 20260904135243 | 97 | 338 | 2.0 | 4.0 | 0.00 | 0.00 | 0.00 | 29 | 1016.6 |
| 20260904135047 | 97 | 315 | 3.0 | 6.0 | 0.00 | 0.00 | 0.00 | 30 | 1016.6 |
| 20260904134842 | 97 | 0 | 2.0 | 4.0 | 0.00 | 0.00 | 0.00 | 30 | 1016.7 |
| 20260904134642 | 97 | 315 | 2.0 | 2.0 | 0.00 | 0.00 | 0.00 | 29 | 1016.6 |
| 20260904134444 | 96 | 22 | 4.0 | 8.0 | 0.00 | 0.00 | 0.00 | 30 | 1016.7 |
| 20260904134243 | 96 | 112 | 4.0 | 8.0 | 0.00 | 0.00 | 0.00 | 30 | 1016.7 |
| 20260904134052 | 97 | 315 | 4.0 | 8.0 | 0.00 | 0.00 | 0.00 | 30 | 1016.6 |
| 20260904133843 | 97 | 45 | 4.0 | 8.0 | 0.00 | 0.00 | 0.00 | 30 | 1016.6 |
| 20260904133644 | 97 | 292 | 4.0 | 9.0 | 0.00 | 0.00 | 0.00 | 30 | 1016.7 |
| 20260904133443 | 97 | 338 | 4.0 | 7.0 | 0.00 | 0.00 | 0.00 | 30 | 1016.5 |
| 20260904133051 | 97 | 112 | 3.0 | 11.0 | 0.00 | 0.00 | 0.00 | 29 | 1016.6 |
| 20260904132644 | 97 | 315 | 2.0 | 4.0 | 0.00 | 0.00 | 0.00 | 29 | 1016.7 |
| 20260904132442 | 97 | 22 | 4.0 | 7.0 | 0.00 | 0.00 | 0.00 | 29 | 1016.7 |
| 20260904132243 | 97 | 292 | 6.0 | 11.0 | 0.00 | 0.00 | 0.00 | 30 | 1016.5 |
| 20260904131843 | 97 | 292 | 4.0 | 8.0 | 0.00 | 0.00 | 0.00 | 30 | 1016.7 |
| 20260904130843 | 97 | 292 | 5.0 | 8.0 | 0.00 | 0.00 | 0.00 | 30 | 1016.6 |
| 20260904130243 | 97 | 45 | 2.0 | 4.0 | 0.00 | 0.00 | 0.00 | 30 | 1016.7 |
| 20260904130050 | 97 | 338 | 2.0 | 8.0 | 0.00 | 0.00 | 0.00 | 30 | 1016.7 |
| 20260904125845 | 97 | 338 | 4.0 | 7.0 | 0.00 | 0.00 | 0.00 | 31 | 1016.8 |
| 20260904125644 | 97 | 292 | 5.0 | 9.0 | 0.00 | 0.00 | 0.00 | 32 | 1016.8 |
| 20260904125444 | 98 | 315 | 5.0 | 11.0 | 0.00 | 0.00 | 0.00 | 33 | 1016.8 |
| 20260904125243 | 98 | 338 | 2.0 | 4.0 | 0.00 | 0.00 | 0.00 | 32 | 1016.8 |
| 20260904124642 | 97 | 292 | 4.0 | 7.0 | 0.00 | 0.00 | 0.00 | 32 | 1016.9 |
| 20260904124443 | 97 | 315 | 2.0 | 4.0 | 0.00 | 0.00 | 0.00 | 33 | 1017.1 |
| 20260904124051 | 96 | 338 | 4.0 | 9.0 | 0.00 | 0.00 | 0.00 | 33 | 1016.9 |
| 20260904123841 | 96 | 315 | 4.0 | 8.0 | 0.00 | 0.00 | 0.00 | 34 | 1017.0 |
| 20260904123644 | 95 | 292 | 3.0 | 4.0 | 0.00 | 0.00 | 0.00 | 33 | 1016.8 |
| 20260904123244 | 95 | 292 | 5.0 | 7.0 | 0.00 | 0.00 | 0.00 | 34 | 1016.9 |
| 20260904122842 | 94 | 0 | 1.0 | 2.0 | 0.00 | 0.00 | 0.00 | 35 | 1017.0 |
| 20260904122642 | 94 | 112 | 2.0 | 4.0 | 0.00 | 0.00 | 0.00 | 36 | 1017.1 |
| 20260904122442 | 94 | 270 | 2.0 | 6.0 | 0.00 | 0.00 | 0.00 | 35 | 1017.0 |
| 20260904122243 | 94 | 45 | 2.0 | 4.0 | 0.00 | 0.00 | 0.00 | 37 | 1017.1 |
| 20260904122047 | 94 | 338 | 2.0 | 4.0 | 0.00 | 0.00 | 0.00 | 36 | 1017.0 |
| 20260904121844 | 94 | 68 | 2.0 | 2.0 | 0.00 | 0.00 | 0.00 | 37 | 1017.0 |
| 20260904121642 | 94 | 315 | 4.0 | 6.0 | 0.00 | 0.00 | 0.00 | 36 | 1017.1 |
| 20260904121443 | 94 | 270 | 4.0 | 6.0 | 0.00 | 0.00 | 0.00 | 36 | 1017.0 |
| 20260904121244 | 95 | 338 | 2.0 | 4.0 | 0.00 | 0.00 | 0.00 | 36 | 1017.1 |
| 20260904121051 | 95 | 90 | 2.0 | 4.0 | 0.00 | 0.00 | 0.00 | 35 | 1017.0 |
| 20260904120845 | 95 | 45 | 4.0 | 7.0 | 0.00 | 0.00 | 0.00 | 35 | 1017.1 |
| 20260904120643 | 95 | 22 | 5.0 | 7.0 | 0.00 | 0.00 | 0.00 | 34 | 1017.3 |
| 20260904120243 | 94 | 0 | 2.0 | 6.0 | 0.00 | 0.00 | 0.00 | 36 | 1017.1 |
| 20260904120053 | 94 | 338 | 3.0 | 6.0 | 0.00 | 0.00 | 0.00 | 37 | 1017.3 |
| 20260904115843 | 95 | 22 | 3.0 | 4.0 | 0.00 | 0.00 | 0.00 | 37 | 1017.3 |
| 20260904115643 | 95 | 22 | 5.0 | 8.0 | 0.00 | 0.00 | 0.00 | 36 | 1017.2 |
| 20260904115443 | 95 | 22 | 1.0 | 4.0 | 0.00 | 0.00 | 0.00 | 36 | 1017.3 |
| 20260904115243 | 95 | 315 | 2.0 | 4.0 | 0.00 | 0.00 | 0.00 | 37 | 1017.3 |
| 20260904115046 | 93 | 22 | 3.0 | 6.0 | 0.00 | 0.00 | 0.00 | 37 | 1017.3 |
| 20260904114844 | 93 | 45 | 4.0 | 8.0 | 0.00 | 0.00 | 0.00 | 36 | 1017.2 |
| 20260904114243 | 95 | 315 | 2.0 | 4.0 | 0.00 | 0.00 | 0.00 | 37 | 1017.0 |
| 20260904113843 | 94 | 248 | 5.0 | 9.0 | 0.00 | 0.00 | 0.00 | 37 | 1017.2 |
| 20260904113642 | 93 | 338 | 3.0 | 4.0 | 0.00 | 0.00 | 0.00 | 39 | 1017.2 |
| 20260904113444 | 93 | 22 | 2.0 | 2.0 | 0.00 | 0.00 | 0.00 | 38 | 1017.5 |
| 20260904113050 | 94 | 315 | 5.0 | 8.0 | 0.00 | 0.00 | 0.00 | 38 | 1017.3 |
| 20260904112643 | 94 | 338 | 5.0 | 9.0 | 0.00 | 0.00 | 0.00 | 38 | 1017.5 |
| 20260904112443 | 94 | 22 | 4.0 | 8.0 | 0.00 | 0.00 | 0.00 | 37 | 1017.5 |
| 20260904112242 | 95 | 45 | 3.0 | 4.0 | 0.00 | 0.00 | 0.00 | 36 | 1017.6 |
| 20260904112047 | 96 | 45 | 6.0 | 13.0 | 0.00 | 0.00 | 0.00 | 36 | 1017.4 |
| 20260904111843 | 96 | 45 | 4.0 | 8.0 | 0.00 | 0.00 | 0.00 | 36 | 1017.5 |
| 20260904111643 | 96 | 22 | 4.0 | 7.0 | 0.00 | 0.00 | 0.00 | 38 | 1017.5 |
| 20260904111443 | 96 | 0 | 2.0 | 4.0 | 0.00 | 0.00 | 0.00 | 38 | 1017.4 |
| 20260904111241 | 96 | 338 | 4.0 | 7.0 | 0.00 | 0.00 | 0.00 | 39 | 1017.5 |
| 20260904111050 | 96 | 338 | 3.0 | 7.0 | 0.00 | 0.00 | 0.00 | 39 | 1017.4 |
| 20260904110842 | 96 | 22 | 4.0 | 6.0 | 0.00 | 0.00 | 0.00 | 40 | 1017.5 |
| 20260904110643 | 96 | 22 | 3.0 | 7.0 | 0.00 | 0.00 | 0.00 | 38 | 1017.5 |
| 20260904110243 | 96 | 315 | 5.0 | 11.0 | 0.00 | 0.00 | 0.00 | 38 | 1017.3 |
| 20260904110052 | 95 | 22 | 4.0 | 8.0 | 0.00 | 0.00 | 0.00 | 39 | 1017.4 |
| 20260904105843 | 95 | 292 | 5.0 | 7.0 | 0.00 | 0.00 | 0.00 | 39 | 1017.6 |
| 20260904105641 | 96 | 45 | 4.0 | 7.0 | 0.00 | 0.00 | 0.00 | 40 | 1017.5 |
| 20260904105443 | 96 | 68 | 4.0 | 6.0 | 0.00 | 0.00 | 0.00 | 39 | 1017.6 |
| 20260904105241 | 94 | 292 | 2.0 | 4.0 | 0.00 | 0.00 | 0.00 | 39 | 1017.5 |
| 20260904105046 | 94 | 45 | 4.0 | 6.0 | 0.00 | 0.00 | 0.00 | 39 | 1017.4 |
| 20260904104843 | 94 | 45 | 4.0 | 7.0 | 0.00 | 0.00 | 0.00 | 41 | 1017.4 |
| 20260904104642 | 93 | 22 | 5.0 | 11.0 | 0.00 | 0.00 | 0.00 | 41 | 1017.5 |
| 20260904104243 | 94 | 45 | 8.0 | 14.0 | 0.00 | 0.00 | 0.00 | 41 | 1017.6 |
| 20260904104051 | 94 | 0 | 5.0 | 8.0 | 0.00 | 0.00 | 0.00 | 41 | 1017.6 |
| 20260904103843 | 94 | 0 | 5.0 | 13.0 | 0.00 | 0.00 | 0.00 | 42 | 1017.6 |
| 20260904103443 | 94 | 22 | 7.0 | 9.0 | 0.00 | 0.00 | 0.00 | 43 | 1017.5 |
| 20260904103242 | 94 | 45 | 8.0 | 11.0 | 0.00 | 0.00 | 0.00 | 42 | 1017.5 |
| 20260904102841 | 94 | 315 | 2.0 | 4.0 | 0.00 | 0.00 | 0.00 | 43 | 1017.8 |
| 20260904102643 | 94 | 68 | 2.0 | 7.0 | 0.00 | 0.00 | 0.00 | 42 | 1017.6 |
| 20260904102244 | 93 | 248 | 4.0 | 8.0 | 0.00 | 0.00 | 0.00 | 43 | 1017.8 |
| 20260904102046 | 94 | 315 | 5.0 | 8.0 | 0.00 | 0.00 | 0.00 | 43 | 1017.7 |
| 20260904101843 | 94 | 315 | 4.0 | 7.0 | 0.00 | 0.00 | 0.00 | 43 | 1017.9 |
| 20260904101643 | 94 | 315 | 4.0 | 6.0 | 0.00 | 0.00 | 0.00 | 43 | 1017.7 |
| 20260904101444 | 94 | 315 | 4.0 | 8.0 | 0.00 | 0.00 | 0.00 | 42 | 1017.9 |
| 20260904101243 | 94 | 315 | 2.0 | 4.0 | 0.00 | 0.00 | 0.00 | 43 | 1017.7 |
| 20260904101051 | 94 | 315 | 3.0 | 6.0 | 0.00 | 0.00 | 0.00 | 44 | 1017.9 |
| 20260904100842 | 93 | 338 | 3.0 | 4.0 | 0.00 | 0.00 | 0.00 | 43 | 1017.9 |
| 20260904100643 | 92 | 22 | 4.0 | 7.0 | 0.00 | 0.00 | 0.00 | 44 | 1017.9 |
| 20260904100443 | 92 | 338 | 11.0 | 15.0 | 0.00 | 0.00 | 0.00 | 45 | 1017.8 |
| 20260904100242 | 92 | 292 | 4.0 | 7.0 | 0.00 | 0.00 | 0.00 | 45 | 1017.9 |
| 20260904100051 | 92 | 338 | 4.0 | 6.0 | 0.00 | 0.00 | 0.00 | 45 | 1017.9 |
| 20260904095843 | 93 | 0 | 4.0 | 6.0 | 0.00 | 0.00 | 0.00 | 44 | 1017.9 |
| 20260904095643 | 93 | 315 | 4.0 | 9.0 | 0.00 | 0.00 | 0.00 | 44 | 1018.0 |
| 20260904095441 | 93 | 45 | 6.0 | 13.0 | 0.00 | 0.00 | 0.00 | 45 | 1017.9 |
| 20260904095242 | 93 | 270 | 4.0 | 9.0 | 0.00 | 0.00 | 0.00 | 44 | 1018.1 |
| 20260904095047 | 93 | 338 | 7.0 | 9.0 | 0.00 | 0.00 | 0.00 | 45 | 1018.0 |
| 20260904094842 | 93 | 22 | 4.0 | 8.0 | 0.00 | 0.00 | 0.00 | 45 | 1018.1 |
| 20260904094643 | 93 | 22 | 4.0 | 9.0 | 0.00 | 0.00 | 0.00 | 44 | 1018.0 |
| 20260904094441 | 93 | 22 | 4.0 | 8.0 | 0.00 | 0.00 | 0.00 | 45 | 1018.2 |
| 20260904094243 | 92 | 315 | 3.0 | 6.0 | 0.00 | 0.00 | 0.00 | 45 | 1018.0 |
| 20260904094051 | 92 | 292 | 2.0 | 6.0 | 0.00 | 0.00 | 0.00 | 45 | 1018.0 |
| 20260904093842 | 92 | 0 | 4.0 | 6.0 | 0.00 | 0.00 | 0.00 | 46 | 1018.2 |
| 20260904093643 | 92 | 292 | 7.0 | 11.0 | 0.00 | 0.00 | 0.00 | 46 | 1018.4 |
| 20260904093443 | 91 | 315 | 4.0 | 9.0 | 0.00 | 0.00 | 0.00 | 45 | 1018.3 |
| 20260904093243 | 91 | 270 | 4.0 | 8.0 | 0.00 | 0.00 | 0.00 | 46 | 1018.4 |
| 20260904093050 | 92 | 292 | 7.0 | 11.0 | 0.00 | 0.00 | 0.00 | 45 | 1018.2 |
| 20260904092842 | 92 | 0 | 7.0 | 11.0 | 0.00 | 0.00 | 0.00 | 45 | 1018.3 |
| 20260904092444 | 91 | 0 | 4.0 | 9.0 | 0.00 | 0.00 | 0.00 | 45 | 1018.3 |
| 20260904092243 | 91 | 0 | 3.0 | 6.0 | 0.00 | 0.00 | 0.00 | 46 | 1018.3 |
| 20260904091843 | 91 | 22 | 2.0 | 4.0 | 0.00 | 0.00 | 0.00 | 47 | 1018.4 |
| 20260904091643 | 91 | 45 | 4.0 | 7.0 | 0.00 | 0.00 | 0.00 | 46 | 1018.4 |
| 20260904091442 | 90 | 292 | 2.0 | 4.0 | 0.00 | 0.00 | 0.00 | 47 | 1018.4 |
| 20260904091243 | 90 | 0 | 5.0 | 11.0 | 0.00 | 0.00 | 0.00 | 47 | 1018.3 |
| 20260904090642 | 90 | 292 | 6.0 | 9.0 | 0.00 | 0.00 | 0.00 | 47 | 1018.4 |
| 20260904090443 | 91 | 270 | 4.0 | 7.0 | 0.00 | 0.00 | 0.00 | 46 | 1018.2 |
| 20260904090242 | 90 | 315 | 2.0 | 4.0 | 0.00 | 0.00 | 0.00 | 46 | 1018.3 |
| 20260904090051 | 90 | 22 | 3.0 | 6.0 | 0.00 | 0.00 | 0.00 | 46 | 1018.3 |
| 20260904085643 | 90 | 292 | 4.0 | 13.0 | 0.00 | 0.00 | 0.00 | 46 | 1018.4 |
| 20260904085442 | 89 | 315 | 4.0 | 8.0 | 0.00 | 0.00 | 0.00 | 47 | 1018.4 |
| 20260904085242 | 89 | 315 | 3.0 | 7.0 | 0.00 | 0.00 | 0.00 | 47 | 1018.5 |
| 20260904085047 | 90 | 315 | 6.0 | 11.0 | 0.00 | 0.00 | 0.00 | 46 | 1018.3 |
| 20260904084842 | 90 | 248 | 4.0 | 7.0 | 0.00 | 0.00 | 0.00 | 45 | 1018.4 |
| 20260904084643 | 90 | 22 | 4.0 | 8.0 | 0.00 | 0.00 | 0.00 | 46 | 1018.4 |
| 20260904084443 | 89 | 270 | 4.0 | 6.0 | 0.00 | 0.00 | 0.00 | 48 | 1018.4 |
| 20260904084241 | 89 | 315 | 2.0 | 4.0 | 0.00 | 0.00 | 0.00 | 47 | 1018.4 |
| 20260904084100 | 89 | 292 | 4.0 | 8.0 | 0.00 | 0.00 | 0.00 | 48 | 1018.2 |
| 20260904083642 | 89 | 315 | 6.0 | 11.0 | 0.00 | 0.00 | 0.00 | 46 | 1018.2 |
| 20260904083442 | 89 | 315 | 4.0 | 7.0 | 0.00 | 0.00 | 0.00 | 48 | 1018.3 |
| 20260904083242 | 89 | 68 | 2.0 | 4.0 | 0.00 | 0.00 | 0.00 | 48 | 1018.3 |
| 20260904083056 | 88 | 0 | 4.0 | 7.0 | 0.00 | 0.00 | 0.00 | 48 | 1018.2 |
| 20260904082844 | 88 | 0 | 4.0 | 7.0 | 0.00 | 0.00 | 0.00 | 48 | 1018.1 |
| 20260904082643 | 88 | 315 | 4.0 | 8.0 | 0.00 | 0.00 | 0.00 | 49 | 1018.3 |
| 20260904082443 | 88 | 315 | 4.0 | 6.0 | 0.00 | 0.00 | 0.00 | 49 | 1018.2 |
| 20260904082244 | 88 | 292 | 5.0 | 7.0 | 0.00 | 0.00 | 0.00 | 49 | 1018.3 |
| 20260904082047 | 88 | 225 | 5.0 | 9.0 | 0.00 | 0.00 | 0.00 | 49 | 1018.2 |
| 20260904081842 | 88 | 315 | 5.0 | 8.0 | 0.00 | 0.00 | 0.00 | 49 | 1018.3 |
| 20260904081642 | 87 | 270 | 4.0 | 9.0 | 0.00 | 0.00 | 0.00 | 49 | 1018.4 |
| 20260904081442 | 87 | 292 | 4.0 | 8.0 | 0.00 | 0.00 | 0.00 | 50 | 1018.2 |
| 20260904081243 | 87 | 338 | 5.0 | 9.0 | 0.00 | 0.00 | 0.00 | 50 | 1018.3 |
| 20260904081050 | 87 | 315 | 6.0 | 9.0 | 0.00 | 0.00 | 0.00 | 50 | 1018.3 |
| 20260904080842 | 87 | 315 | 7.0 | 9.0 | 0.00 | 0.00 | 0.00 | 50 | 1018.2 |
| 20260904080642 | 87 | 292 | 3.0 | 6.0 | 0.00 | 0.00 | 0.00 | 50 | 1018.2 |
| 20260904080443 | 87 | 270 | 5.0 | 7.0 | 0.00 | 0.00 | 0.00 | 50 | 1018.3 |
| 20260904080242 | 87 | 315 | 6.0 | 9.0 | 0.00 | 0.00 | 0.00 | 50 | 1018.0 |
| 20260904080053 | 87 | 338 | 6.0 | 9.0 | 0.00 | 0.00 | 0.00 | 50 | 1018.1 |
| 20260904075842 | 87 | 292 | 7.0 | 9.0 | 0.00 | 0.00 | 0.00 | 50 | 1018.2 |
| 20260904075643 | 87 | 248 | 4.0 | 7.0 | 0.00 | 0.00 | 0.00 | 50 | 1018.1 |
| 20260904075442 | 86 | 292 | 4.0 | 8.0 | 0.00 | 0.00 | 0.00 | 50 | 1018.0 |
| 20260904075244 | 86 | 315 | 4.0 | 8.0 | 0.00 | 0.00 | 0.00 | 50 | 1018.0 |
| 20260904075048 | 87 | 338 | 7.0 | 11.0 | 0.00 | 0.00 | 0.00 | 50 | 1018.1 |
| 20260904074843 | 87 | 315 | 5.0 | 9.0 | 0.00 | 0.00 | 0.00 | 49 | 1018.0 |
| 20260904074243 | 86 | 292 | 10.0 | 15.0 | 0.00 | 0.00 | 0.00 | 51 | 1018.1 |
| 20260904073842 | 86 | 292 | 4.0 | 7.0 | 0.00 | 0.00 | 0.00 | 51 | 1018.0 |
| 20260904073441 | 86 | 292 | 4.0 | 6.0 | 0.00 | 0.00 | 0.00 | 50 | 1018.0 |
| 20260904073243 | 86 | 338 | 4.0 | 7.0 | 0.00 | 0.00 | 0.00 | 51 | 1017.9 |
| 20260904073101 | 86 | 315 | 6.0 | 11.0 | 0.00 | 0.00 | 0.00 | 50 | 1018.0 |
| 20260904072842 | 86 | 0 | 6.0 | 9.0 | 0.00 | 0.00 | 0.00 | 51 | 1017.8 |
| 20260904072643 | 85 | 292 | 4.0 | 7.0 | 0.00 | 0.00 | 0.00 | 51 | 1017.9 |
| 20260904072443 | 85 | 315 | 4.0 | 8.0 | 0.00 | 0.00 | 0.00 | 50 | 1017.8 |
| 20260904072242 | 85 | 338 | 4.0 | 4.0 | 0.00 | 0.00 | 0.00 | 51 | 1017.9 |
| 20260904072047 | 85 | 315 | 5.0 | 11.0 | 0.00 | 0.00 | 0.00 | 50 | 1017.7 |
| 20260904071843 | 85 | 338 | 4.0 | 7.0 | 0.00 | 0.00 | 0.00 | 50 | 1017.7 |
| 20260904071643 | 85 | 315 | 6.0 | 8.0 | 0.00 | 0.00 | 0.00 | 50 | 1017.7 |
| 20260904071442 | 85 | 292 | 4.0 | 7.0 | 0.00 | 0.00 | 0.00 | 51 | 1017.8 |
| 20260904071241 | 84 | 292 | 4.0 | 6.0 | 0.00 | 0.00 | 0.00 | 51 | 1018.0 |
| 20260904070912 | 84 | 292 | 3.0 | 4.0 | 0.00 | 0.00 | 0.00 | 50 | 1017.8 |
| 20260904070642 | 84 | 292 | 4.0 | 8.0 | 0.00 | 0.00 | 0.00 | 50 | 1017.6 |
| 20260904070443 | 84 | 292 | 8.0 | 11.0 | 0.00 | 0.00 | 0.00 | 49 | 1017.6 |
| 20260904070241 | 84 | 270 | 4.0 | 8.0 | 0.00 | 0.00 | 0.00 | 50 | 1017.5 |
| 20260904070051 | 84 | 315 | 7.0 | 11.0 | 0.00 | 0.00 | 0.00 | 50 | 1017.7 |
| 20260904065842 | 83 | 292 | 4.0 | 7.0 | 0.00 | 0.00 | 0.00 | 50 | 1017.4 |
| 20260904065642 | 83 | 338 | 5.0 | 8.0 | 0.00 | 0.00 | 0.00 | 49 | 1017.6 |
| 20260904065442 | 83 | 248 | 5.0 | 9.0 | 0.00 | 0.00 | 0.00 | 49 | 1017.7 |
| 20260904065047 | 83 | 315 | 4.0 | 7.0 | 0.00 | 0.00 | 0.00 | 49 | 1017.3 |
| 20260904064643 | 83 | 292 | 4.0 | 6.0 | 0.00 | 0.00 | 0.00 | 49 | 1017.5 |
| 20260904064442 | 83 | 270 | 6.0 | 9.0 | 0.00 | 0.00 | 0.00 | 48 | 1017.4 |
| 20260904064242 | 83 | 270 | 5.0 | 9.0 | 0.00 | 0.00 | 0.00 | 49 | 1017.4 |
| 20260904064050 | 83 | 270 | 6.0 | 11.0 | 0.00 | 0.00 | 0.00 | 49 | 1017.3 |
| 20260904063843 | 82 | 270 | 3.0 | 6.0 | 0.00 | 0.00 | 0.00 | 50 | 1017.4 |
| 20260904063642 | 82 | 292 | 4.0 | 8.0 | 0.00 | 0.00 | 0.00 | 49 | 1017.6 |
| 20260904063442 | 82 | 270 | 8.0 | 11.0 | 0.00 | 0.00 | 0.00 | 49 | 1017.3 |
| 20260904063244 | 82 | 292 | 7.0 | 11.0 | 0.00 | 0.00 | 0.00 | 49 | 1017.3 |
| 20260904063057 | 82 | 292 | 6.0 | 8.0 | 0.00 | 0.00 | 0.00 | 49 | 1017.3 |
| 20260904062843 | 82 | 292 | 4.0 | 6.0 | 0.00 | 0.00 | 0.00 | 50 | 1017.5 |
| 20260904062641 | 82 | 292 | 5.0 | 7.0 | 0.00 | 0.00 | 0.00 | 50 | 1017.4 |
| 20260904062442 | 81 | 292 | 4.0 | 7.0 | 0.00 | 0.00 | 0.00 | 50 | 1017.4 |
| 20260904062241 | 81 | 292 | 4.0 | 8.0 | 0.00 | 0.00 | 0.00 | 50 | 1017.6 |
| 20260904061842 | 80 | 315 | 3.0 | 6.0 | 0.00 | 0.00 | 0.00 | 53 | 1017.5 |
| 20260904061644 | 80 | 202 | 3.0 | 4.0 | 0.00 | 0.00 | 0.00 | 54 | 1017.6 |
| 20260904061443 | 79 | 270 | 4.0 | 7.0 | 0.00 | 0.00 | 0.00 | 53 | 1017.3 |
| 20260904061052 | 78 | 248 | 1.0 | 2.0 | 0.00 | 0.00 | 0.00 | 57 | 1017.5 |
| 20260904060842 | 78 | 292 | 2.0 | 2.0 | 0.00 | 0.00 | 0.00 | 57 | 1017.4 |
| 20260904060643 | 78 | 270 | 2.0 | 2.0 | 0.00 | 0.00 | 0.00 | 56 | 1017.6 |
| 20260904060442 | 78 | 270 | 3.0 | 4.0 | 0.00 | 0.00 | 0.00 | 56 | 1017.5 |
| 20260904060242 | 78 | 248 | 2.0 | 4.0 | 0.00 | 0.00 | 0.00 | 56 | 1017.4 |
| 20260904055843 | 78 | 292 | 2.0 | 2.0 | 0.00 | 0.00 | 0.00 | 57 | 1017.5 |
| 20260904055643 | 78 | 270 | 2.0 | 4.0 | 0.00 | 0.00 | 0.00 | 57 | 1017.4 |
| 20260904055444 | 78 | 248 | 3.0 | 4.0 | 0.00 | 0.00 | 0.00 | 56 | 1017.4 |
| 20260904055242 | 78 | 248 | 2.0 | 4.0 | 0.00 | 0.00 | 0.00 | 56 | 1017.4 |
| 20260904054842 | 78 | 248 | 2.0 | 2.0 | 0.00 | 0.00 | 0.00 | 57 | 1017.5 |
| 20260904054641 | 77 | 270 | 1.0 | 2.0 | 0.00 | 0.00 | 0.00 | 56 | 1017.4 |
| 20260904054443 | 77 | 292 | 1.0 | 2.0 | 0.00 | 0.00 | 0.00 | 56 | 1017.4 |
| 20260904054242 | 77 | 248 | 2.0 | 2.0 | 0.00 | 0.00 | 0.00 | 56 | 1017.5 |
| 20260904053644 | 77 | 248 | 2.0 | 4.0 | 0.00 | 0.00 | 0.00 | 55 | 1017.3 |
| 20260904053442 | 77 | 270 | 1.0 | 2.0 | 0.00 | 0.00 | 0.00 | 56 | 1017.4 |
| 20260904053244 | 77 | 270 | 1.0 | 2.0 | 0.00 | 0.00 | 0.00 | 56 | 1017.2 |
| 20260904053050 | 77 | 248 | 0.0 | 0.0 | 0.00 | 0.00 | 0.00 | 55 | 1017.3 |
| 20260904052842 | 77 | 225 | 0.0 | 0.0 | 0.00 | 0.00 | 0.00 | 55 | 1017.4 |
| 20260904052643 | 76 | 248 | 0.0 | 0.0 | 0.00 | 0.00 | 0.00 | 56 | 1017.5 |
| 20260904052442 | 76 | 248 | 0.0 | 0.0 | 0.00 | 0.00 | 0.00 | 56 | 1017.3 |
| 20260904052241 | 76 | 248 | 0.0 | 0.0 | 0.00 | 0.00 | 0.00 | 56 | 1017.4 |
| 20260904052046 | 76 | 225 | 0.0 | 0.0 | 0.00 | 0.00 | 0.00 | 57 | 1017.4 |
| 20260904051642 | 75 | 225 | 0.0 | 0.0 | 0.00 | 0.00 | 0.00 | 58 | 1017.3 |
| 20260904051441 | 75 | 202 | 2.0 | 2.0 | 0.00 | 0.00 | 0.00 | 58 | 1017.3 |
| 20260904050744 | 74 | 225 | 0.0 | 2.0 | 0.00 | 0.00 | 0.00 | 60 | 1017.1 |
| 20260904050547 | 74 | 225 | 0.0 | 2.0 | 0.00 | 0.00 | 0.00 | 59 | 1017.1 |
| 20260904050341 | 74 | 202 | 1.0 | 2.0 | 0.00 | 0.00 | 0.00 | 60 | 1017.1 |
| 20260904050143 | 74 | 248 | 1.0 | 2.0 | 0.00 | 0.00 | 0.00 | 60 | 1017.0 |
| 20260904045941 | 74 | 248 | 1.0 | 2.0 | 0.00 | 0.00 | 0.00 | 60 | 1017.2 |
| 20260904045744 | 74 | 202 | 1.0 | 2.0 | 0.00 | 0.00 | 0.00 | 61 | 1017.0 |
| 20260904045141 | 73 | 248 | 0.0 | 0.0 | 0.00 | 0.00 | 0.00 | 61 | 1017.1 |
| 20260904044942 | 73 | 248 | 1.0 | 2.0 | 0.00 | 0.00 | 0.00 | 61 | 1017.2 |
| 20260904044743 | 73 | 225 | 1.0 | 2.0 | 0.00 | 0.00 | 0.00 | 61 | 1017.1 |
| 20260904044342 | 73 | 248 | 1.0 | 2.0 | 0.00 | 0.00 | 0.00 | 61 | 1017.1 |
| 20260904044150 | 73 | 225 | 2.0 | 2.0 | 0.00 | 0.00 | 0.00 | 62 | 1016.9 |
| 20260904043744 | 72 | 225 | 1.0 | 2.0 | 0.00 | 0.00 | 0.00 | 63 | 1017.0 |
| 20260904043546 | 72 | 248 | 1.0 | 2.0 | 0.00 | 0.00 | 0.00 | 63 | 1016.9 |
| 20260904043342 | 72 | 248 | 1.0 | 2.0 | 0.00 | 0.00 | 0.00 | 64 | 1016.9 |
| 20260904042942 | 72 | 248 | 1.0 | 2.0 | 0.00 | 0.00 | 0.00 | 65 | 1016.9 |
| 20260904042744 | 72 | 292 | 1.0 | 2.0 | 0.00 | 0.00 | 0.00 | 65 | 1016.8 |
| 20260904042553 | 72 | 225 | 0.0 | 2.0 | 0.00 | 0.00 | 0.00 | 66 | 1017.1 |
| 20260904042342 | 72 | 248 | 0.0 | 0.0 | 0.00 | 0.00 | 0.00 | 66 | 1016.8 |
| 20260904042142 | 72 | 225 | 0.0 | 2.0 | 0.00 | 0.00 | 0.00 | 66 | 1017.0 |
| 20260904041443 | 73 | 112 | 1.0 | 2.0 | 0.00 | 0.00 | 0.00 | 65 | 1016.9 |
| 20260904041242 | 73 | 112 | 1.0 | 2.0 | 0.00 | 0.00 | 0.00 | 64 | 1017.2 |
| 20260904041053 | 74 | 112 | 2.0 | 2.0 | 0.00 | 0.00 | 0.00 | 64 | 1017.1 |
| 20260904040841 | 74 | 45 | 1.0 | 2.0 | 0.00 | 0.00 | 0.00 | 63 | 1017.1 |
| 20260904040641 | 74 | 68 | 2.0 | 4.0 | 0.00 | 0.00 | 0.00 | 63 | 1017.0 |
| 20260904040242 | 75 | 45 | 2.0 | 2.0 | 0.00 | 0.00 | 0.00 | 62 | 1017.0 |
| 20260904040056 | 75 | 68 | 1.0 | 2.0 | 0.00 | 0.00 | 0.00 | 61 | 1017.0 |
| 20260904035842 | 75 | 0 | 0.0 | 0.0 | 0.00 | 0.00 | 0.00 | 60 | 1017.0 |
| 20260904035643 | 75 | 292 | 0.0 | 0.0 | 0.00 | 0.00 | 0.00 | 59 | 1016.8 |
| 20260904035442 | 75 | 292 | 2.0 | 4.0 | 0.00 | 0.00 | 0.00 | 59 | 1016.9 |
| 20260904035243 | 75 | 270 | 2.0 | 2.0 | 0.00 | 0.00 | 0.00 | 58 | 1016.8 |
| 20260904035047 | 75 | 292 | 4.0 | 6.0 | 0.00 | 0.00 | 0.00 | 58 | 1016.9 |
| 20260904034842 | 75 | 270 | 3.0 | 6.0 | 0.00 | 0.00 | 0.00 | 58 | 1016.7 |
| 20260904034444 | 75 | 270 | 5.0 | 8.0 | 0.00 | 0.00 | 0.00 | 58 | 1016.8 |
| 20260904034057 | 75 | 270 | 4.0 | 6.0 | 0.00 | 0.00 | 0.00 | 59 | 1016.6 |
| 20260904033842 | 75 | 270 | 4.0 | 6.0 | 0.00 | 0.00 | 0.00 | 60 | 1016.7 |
| 20260904033643 | 74 | 292 | 4.0 | 6.0 | 0.00 | 0.00 | 0.00 | 60 | 1016.6 |
| 20260904033442 | 74 | 270 | 5.0 | 7.0 | 0.00 | 0.00 | 0.00 | 60 | 1016.8 |
| 20260904033241 | 74 | 270 | 4.0 | 6.0 | 0.00 | 0.00 | 0.00 | 61 | 1016.8 |
| 20260904033050 | 74 | 248 | 4.0 | 6.0 | 0.00 | 0.00 | 0.00 | 60 | 1016.5 |
| 20260904032843 | 74 | 270 | 4.0 | 8.0 | 0.00 | 0.00 | 0.00 | 60 | 1016.7 |
| 20260904032647 | 75 | 270 | 5.0 | 7.0 | 0.00 | 0.00 | 0.00 | 60 | 1016.7 |
| 20260904032442 | 75 | 292 | 7.0 | 9.0 | 0.00 | 0.00 | 0.00 | 59 | 1016.8 |
| 20260904032242 | 75 | 292 | 7.0 | 9.0 | 0.00 | 0.00 | 0.00 | 59 | 1016.6 |
| 20260904032048 | 75 | 270 | 8.0 | 11.0 | 0.00 | 0.00 | 0.00 | 59 | 1016.6 |
| 20260904031842 | 75 | 248 | 7.0 | 11.0 | 0.00 | 0.00 | 0.00 | 59 | 1016.5 |
| 20260904031642 | 75 | 270 | 4.0 | 9.0 | 0.00 | 0.00 | 0.00 | 60 | 1016.4 |
| 20260904031442 | 75 | 270 | 5.0 | 8.0 | 0.00 | 0.00 | 0.00 | 61 | 1016.5 |
| 20260904031243 | 75 | 270 | 4.0 | 6.0 | 0.00 | 0.00 | 0.00 | 61 | 1016.7 |
| 20260904030842 | 74 | 248 | 4.0 | 6.0 | 0.00 | 0.00 | 0.00 | 62 | 1016.6 |
| 20260904030641 | 74 | 248 | 4.0 | 6.0 | 0.00 | 0.00 | 0.00 | 63 | 1016.6 |
| 20260904030443 | 74 | 270 | 4.0 | 7.0 | 0.00 | 0.00 | 0.00 | 62 | 1016.5 |
| 20260904030055 | 75 | 270 | 4.0 | 4.0 | 0.00 | 0.00 | 0.00 | 62 | 1016.8 |
| 20260904025843 | 76 | 248 | 4.0 | 6.0 | 0.00 | 0.00 | 0.00 | 60 | 1016.6 |
| 20260904025642 | 77 | 270 | 4.0 | 6.0 | 0.00 | 0.00 | 0.00 | 61 | 1016.7 |
| 20260904025444 | 77 | 270 | 4.0 | 4.0 | 0.00 | 0.00 | 0.00 | 61 | 1016.6 |
| 20260904025243 | 77 | 270 | 5.0 | 9.0 | 0.00 | 0.00 | 0.00 | 60 | 1016.7 |
| 20260904025046 | 77 | 270 | 4.0 | 6.0 | 0.00 | 0.00 | 0.00 | 61 | 1016.5 |
| 20260904024843 | 77 | 292 | 4.0 | 8.0 | 0.00 | 0.00 | 0.00 | 61 | 1016.7 |
| 20260904024643 | 77 | 270 | 4.0 | 7.0 | 0.00 | 0.00 | 0.00 | 61 | 1016.6 |
| 20260904024442 | 77 | 270 | 3.0 | 6.0 | 0.00 | 0.00 | 0.00 | 61 | 1016.5 |
| 20260904024050 | 77 | 292 | 5.0 | 11.0 | 0.00 | 0.00 | 0.00 | 60 | 1016.4 |
| 20260904023843 | 78 | 292 | 4.0 | 7.0 | 0.00 | 0.00 | 0.00 | 60 | 1016.6 |
| 20260904023443 | 77 | 292 | 6.0 | 9.0 | 0.00 | 0.00 | 0.00 | 60 | 1016.7 |
| 20260904023246 | 77 | 270 | 5.0 | 8.0 | 0.00 | 0.00 | 0.00 | 60 | 1016.6 |
| 20260904023048 | 77 | 292 | 4.0 | 8.0 | 0.00 | 0.00 | 0.00 | 60 | 1016.6 |
| 20260904022844 | 77 | 270 | 7.0 | 9.0 | 0.00 | 0.00 | 0.00 | 60 | 1016.6 |
| 20260904022642 | 77 | 248 | 6.0 | 9.0 | 0.00 | 0.00 | 0.00 | 59 | 1016.6 |
| 20260904022443 | 77 | 270 | 5.0 | 9.0 | 0.00 | 0.00 | 0.00 | 59 | 1016.8 |
| 20260904022242 | 77 | 292 | 5.0 | 7.0 | 0.00 | 0.00 | 0.00 | 59 | 1016.5 |
| 20260904022045 | 77 | 292 | 5.0 | 8.0 | 0.00 | 0.00 | 0.00 | 59 | 1016.8 |
| 20260904021843 | 77 | 292 | 4.0 | 7.0 | 0.00 | 0.00 | 0.00 | 59 | 1016.7 |
| 20260904021643 | 77 | 292 | 4.0 | 6.0 | 0.00 | 0.00 | 0.00 | 59 | 1016.7 |
| 20260904021243 | 77 | 248 | 5.0 | 7.0 | 0.00 | 0.00 | 0.00 | 59 | 1016.7 |
| 20260904021052 | 77 | 292 | 4.0 | 7.0 | 0.00 | 0.00 | 0.00 | 58 | 1016.7 |
| 20260904020842 | 77 | 270 | 5.0 | 9.0 | 0.00 | 0.00 | 0.00 | 58 | 1016.8 |
| 20260904020643 | 77 | 292 | 6.0 | 9.0 | 0.00 | 0.00 | 0.00 | 58 | 1016.7 |
| 20260904020443 | 77 | 292 | 5.0 | 9.0 | 0.00 | 0.00 | 0.00 | 58 | 1016.6 |
| 20260904020243 | 77 | 292 | 4.0 | 8.0 | 0.00 | 0.00 | 0.00 | 59 | 1016.6 |
| 20260904020050 | 77 | 292 | 4.0 | 8.0 | 0.00 | 0.00 | 0.00 | 58 | 1016.6 |
| 20260904015843 | 77 | 270 | 8.0 | 9.0 | 0.00 | 0.00 | 0.00 | 58 | 1016.5 |
| 20260904015643 | 77 | 292 | 5.0 | 8.0 | 0.00 | 0.00 | 0.00 | 59 | 1016.8 |
| 20260904015243 | 76 | 315 | 6.0 | 9.0 | 0.00 | 0.00 | 0.00 | 60 | 1016.8 |
| 20260904015046 | 75 | 292 | 3.0 | 6.0 | 0.00 | 0.00 | 0.00 | 61 | 1016.8 |
| 20260904014843 | 75 | 270 | 4.0 | 6.0 | 0.00 | 0.00 | 0.00 | 62 | 1016.8 |
| 20260904014649 | 75 | 270 | 3.0 | 4.0 | 0.00 | 0.00 | 0.00 | 62 | 1016.6 |
| 20260904014447 | 75 | 292 | 4.0 | 6.0 | 0.00 | 0.00 | 0.00 | 62 | 1016.8 |
| 20260904014243 | 75 | 270 | 4.0 | 6.0 | 0.00 | 0.00 | 0.00 | 62 | 1016.8 |
| 20260904014053 | 75 | 270 | 4.0 | 4.0 | 0.00 | 0.00 | 0.00 | 62 | 1017.0 |
| 20260904013842 | 75 | 292 | 4.0 | 6.0 | 0.00 | 0.00 | 0.00 | 62 | 1016.8 |
| 20260904013444 | 75 | 292 | 4.0 | 6.0 | 0.00 | 0.00 | 0.00 | 62 | 1016.7 |
| 20260904013242 | 75 | 270 | 3.0 | 4.0 | 0.00 | 0.00 | 0.00 | 62 | 1016.9 |
| 20260904012843 | 75 | 270 | 4.0 | 7.0 | 0.00 | 0.00 | 0.00 | 62 | 1016.8 |
| 20260904012643 | 75 | 270 | 4.0 | 6.0 | 0.00 | 0.00 | 0.00 | 62 | 1016.6 |
| 20260904012443 | 75 | 270 | 4.0 | 7.0 | 0.00 | 0.00 | 0.00 | 61 | 1016.8 |
| 20260904012243 | 75 | 292 | 4.0 | 6.0 | 0.00 | 0.00 | 0.00 | 62 | 1016.8 |
| 20260904011842 | 75 | 292 | 4.0 | 4.0 | 0.00 | 0.00 | 0.00 | 62 | 1016.8 |
| 20260904011641 | 75 | 270 | 4.0 | 6.0 | 0.00 | 0.00 | 0.00 | 62 | 1016.8 |
| 20260904011441 | 75 | 270 | 4.0 | 8.0 | 0.00 | 0.00 | 0.00 | 62 | 1016.6 |
| 20260904011048 | 75 | 270 | 4.0 | 4.0 | 0.00 | 0.00 | 0.00 | 62 | 1016.6 |
| 20260904010843 | 75 | 248 | 4.0 | 6.0 | 0.00 | 0.00 | 0.00 | 62 | 1016.7 |
| 20260904010641 | 76 | 292 | 4.0 | 4.0 | 0.00 | 0.00 | 0.00 | 62 | 1016.6 |
| 20260904010442 | 76 | 292 | 4.0 | 4.0 | 0.00 | 0.00 | 0.00 | 61 | 1016.7 |
| 20260904010243 | 76 | 248 | 4.0 | 6.0 | 0.00 | 0.00 | 0.00 | 61 | 1016.7 |
| 20260904010053 | 76 | 292 | 3.0 | 4.0 | 0.00 | 0.00 | 0.00 | 61 | 1016.7 |
| 20260904005842 | 76 | 270 | 4.0 | 6.0 | 0.00 | 0.00 | 0.00 | 61 | 1016.7 |
| 20260904005642 | 76 | 270 | 4.0 | 7.0 | 0.00 | 0.00 | 0.00 | 61 | 1016.9 |
| 20260904005441 | 76 | 292 | 4.0 | 6.0 | 0.00 | 0.00 | 0.00 | 61 | 1016.8 |
| 20260904005242 | 76 | 292 | 4.0 | 6.0 | 0.00 | 0.00 | 0.00 | 60 | 1016.8 |
| 20260904005046 | 76 | 292 | 4.0 | 8.0 | 0.00 | 0.00 | 0.00 | 60 | 1016.7 |
| 20260904004842 | 76 | 292 | 4.0 | 6.0 | 0.00 | 0.00 | 0.00 | 60 | 1016.6 |
| 20260904004442 | 76 | 270 | 4.0 | 6.0 | 0.00 | 0.00 | 0.00 | 60 | 1016.6 |
| 20260904004243 | 76 | 270 | 4.0 | 7.0 | 0.00 | 0.00 | 0.00 | 60 | 1016.7 |
| 20260904004049 | 76 | 248 | 4.0 | 6.0 | 0.00 | 0.00 | 0.00 | 60 | 1016.7 |
| 20260904003643 | 76 | 270 | 4.0 | 7.0 | 0.00 | 0.00 | 0.00 | 60 | 1016.8 |
| 20260904003443 | 76 | 292 | 5.0 | 7.0 | 0.00 | 0.00 | 0.00 | 60 | 1016.8 |
| 20260904003242 | 76 | 248 | 4.0 | 6.0 | 0.00 | 0.00 | 0.00 | 60 | 1016.8 |
| 20260904003048 | 76 | 270 | 6.0 | 8.0 | 0.00 | 0.00 | 0.00 | 60 | 1016.7 |
| 20260904002843 | 76 | 248 | 4.0 | 6.0 | 0.00 | 0.00 | 0.00 | 60 | 1016.8 |
| 20260904002642 | 76 | 270 | 4.0 | 8.0 | 0.00 | 0.00 | 0.00 | 60 | 1016.7 |
| 20260904002443 | 76 | 292 | 6.0 | 9.0 | 0.00 | 0.00 | 0.00 | 60 | 1016.9 |
| 20260904002242 | 76 | 270 | 7.0 | 9.0 | 0.00 | 0.00 | 0.00 | 61 | 1016.8 |
| 20260904001843 | 76 | 292 | 4.0 | 9.0 | 0.00 | 0.00 | 0.00 | 62 | 1016.7 |
| 20260904001643 | 75 | 292 | 5.0 | 9.0 | 0.00 | 0.00 | 0.00 | 62 | 1016.6 |
| 20260904001442 | 75 | 270 | 4.0 | 7.0 | 0.00 | 0.00 | 0.00 | 63 | 1016.7 |
| 20260904001241 | 75 | 270 | 4.0 | 6.0 | 0.00 | 0.00 | 0.00 | 63 | 1016.7 |
| 20260904001048 | 75 | 270 | 3.0 | 4.0 | 0.00 | 0.00 | 0.00 | 63 | 1016.6 |
| 20260904000843 | 75 | 248 | 4.0 | 6.0 | 0.00 | 0.00 | 0.00 | 64 | 1016.6 |
| 20260904000641 | 75 | 270 | 3.0 | 4.0 | 0.00 | 0.00 | 0.00 | 64 | 1016.7 |
| 20260904000442 | 75 | 270 | 3.0 | 4.0 | 0.00 | 0.00 | 0.00 | 64 | 1016.8 |
| 20260904000243 | 75 | 270 | 3.0 | 4.0 | 0.00 | 0.00 | 0.00 | 64 | 1016.7 |
| 20260904000107 | 75 | 270 | 3.0 | 4.0 | 0.00 | 0.00 | 0.00 | 64 | 1016.7 |
| 20260903235841 | 75 | 248 | 4.0 | 6.0 | 0.00 | 0.00 | 0.00 | 64 | 1016.8 |
| 20260903235643 | 75 | 270 | 4.0 | 6.0 | 0.00 | 0.00 | 0.00 | 64 | 1016.7 |
| 20260903235243 | 75 | 248 | 3.0 | 4.0 | 0.00 | 0.00 | 0.00 | 64 | 1016.7 |
| 20260903235048 | 75 | 270 | 3.0 | 6.0 | 0.00 | 0.00 | 0.00 | 64 | 1016.8 |
| 20260903234842 | 76 | 270 | 4.0 | 6.0 | 0.00 | 0.00 | 0.00 | 63 | 1017.0 |
| 20260903234642 | 76 | 292 | 4.0 | 6.0 | 0.00 | 0.00 | 0.00 | 63 | 1016.9 |
| 20260903234443 | 76 | 270 | 3.0 | 4.0 | 0.00 | 0.00 | 0.00 | 63 | 1016.9 |
| 20260903233843 | 76 | 292 | 3.0 | 4.0 | 0.00 | 0.00 | 0.00 | 63 | 1016.9 |
| 20260903233642 | 76 | 292 | 3.0 | 4.0 | 0.00 | 0.00 | 0.00 | 63 | 1016.9 |
| 20260903233442 | 76 | 270 | 4.0 | 4.0 | 0.00 | 0.00 | 0.00 | 63 | 1016.9 |
| 20260903233049 | 76 | 270 | 2.0 | 4.0 | 0.00 | 0.00 | 0.00 | 63 | 1016.7 |
| 20260903232844 | 76 | 292 | 4.0 | 6.0 | 0.00 | 0.00 | 0.00 | 63 | 1016.7 |
| 20260903232643 | 77 | 270 | 3.0 | 4.0 | 0.00 | 0.00 | 0.00 | 63 | 1016.8 |
| 20260903232443 | 77 | 270 | 4.0 | 6.0 | 0.00 | 0.00 | 0.00 | 62 | 1016.7 |
| 20260903232244 | 77 | 248 | 4.0 | 7.0 | 0.00 | 0.00 | 0.00 | 62 | 1016.7 |
| 20260903232047 | 77 | 270 | 4.0 | 7.0 | 0.00 | 0.00 | 0.00 | 62 | 1016.8 |
| 20260903231843 | 78 | 270 | 4.0 | 6.0 | 0.00 | 0.00 | 0.00 | 62 | 1016.7 |
| 20260903231643 | 78 | 270 | 4.0 | 7.0 | 0.00 | 0.00 | 0.00 | 61 | 1016.6 |
| 20260903231242 | 78 | 270 | 6.0 | 9.0 | 0.00 | 0.00 | 0.00 | 61 | 1017.0 |
| 20260903231050 | 78 | 270 | 4.0 | 8.0 | 0.00 | 0.00 | 0.00 | 61 | 1016.8 |
| 20260903230643 | 77 | 292 | 5.0 | 8.0 | 0.00 | 0.00 | 0.00 | 61 | 1016.8 |
| 20260903230441 | 77 | 292 | 4.0 | 7.0 | 0.00 | 0.00 | 0.00 | 61 | 1016.7 |
| 20260903230242 | 77 | 270 | 4.0 | 4.0 | 0.00 | 0.00 | 0.00 | 60 | 1016.8 |
| 20260903230050 | 77 | 292 | 4.0 | 6.0 | 0.00 | 0.00 | 0.00 | 60 | 1016.8 |
| 20260903225845 | 77 | 270 | 3.0 | 4.0 | 0.00 | 0.00 | 0.00 | 60 | 1016.9 |
| 20260903225644 | 77 | 292 | 2.0 | 4.0 | 0.00 | 0.00 | 0.00 | 60 | 1016.8 |
| 20260903225442 | 78 | 270 | 4.0 | 6.0 | 0.00 | 0.00 | 0.00 | 60 | 1017.0 |
| 20260903225242 | 77 | 292 | 4.0 | 7.0 | 0.00 | 0.00 | 0.00 | 59 | 1016.8 |
| 20260903225046 | 77 | 292 | 4.0 | 7.0 | 0.00 | 0.00 | 0.00 | 60 | 1016.9 |
| 20260903224844 | 77 | 292 | 4.0 | 6.0 | 0.00 | 0.00 | 0.00 | 60 | 1016.9 |
| 20260903224643 | 77 | 292 | 4.0 | 4.0 | 0.00 | 0.00 | 0.00 | 60 | 1017.0 |
| 20260903224443 | 77 | 292 | 4.0 | 4.0 | 0.00 | 0.00 | 0.00 | 60 | 1017.1 |
| 20260903224243 | 77 | 270 | 4.0 | 6.0 | 0.00 | 0.00 | 0.00 | 60 | 1017.1 |
| 20260903224058 | 77 | 292 | 2.0 | 4.0 | 0.00 | 0.00 | 0.00 | 61 | 1017.2 |
| 20260903223843 | 77 | 270 | 3.0 | 4.0 | 0.00 | 0.00 | 0.00 | 61 | 1016.9 |
| 20260903223644 | 77 | 292 | 3.0 | 4.0 | 0.00 | 0.00 | 0.00 | 61 | 1017.0 |
| 20260903223442 | 77 | 270 | 2.0 | 4.0 | 0.00 | 0.00 | 0.00 | 61 | 1017.0 |
| 20260903223243 | 77 | 270 | 3.0 | 4.0 | 0.00 | 0.00 | 0.00 | 61 | 1017.0 |
| 20260903223049 | 77 | 292 | 3.0 | 4.0 | 0.00 | 0.00 | 0.00 | 61 | 1017.2 |
| 20260903222843 | 77 | 292 | 3.0 | 4.0 | 0.00 | 0.00 | 0.00 | 61 | 1017.0 |
| 20260903222644 | 77 | 292 | 3.0 | 4.0 | 0.00 | 0.00 | 0.00 | 61 | 1017.0 |
| 20260903222046 | 77 | 292 | 2.0 | 4.0 | 0.00 | 0.00 | 0.00 | 61 | 1017.1 |
| 20260903221842 | 77 | 292 | 2.0 | 4.0 | 0.00 | 0.00 | 0.00 | 61 | 1017.0 |
| 20260903221646 | 77 | 292 | 2.0 | 4.0 | 0.00 | 0.00 | 0.00 | 61 | 1017.1 |
| 20260903221442 | 77 | 292 | 2.0 | 4.0 | 0.00 | 0.00 | 0.00 | 61 | 1016.9 |
| 20260903221243 | 77 | 292 | 2.0 | 2.0 | 0.00 | 0.00 | 0.00 | 61 | 1017.2 |
| 20260903221051 | 77 | 292 | 2.0 | 2.0 | 0.00 | 0.00 | 0.00 | 61 | 1017.0 |
| 20260903220644 | 77 | 292 | 2.0 | 2.0 | 0.00 | 0.00 | 0.00 | 61 | 1017.0 |
| 20260903220443 | 77 | 315 | 2.0 | 2.0 | 0.00 | 0.00 | 0.00 | 60 | 1017.0 |
| 20260903220254 | 77 | 292 | 2.0 | 2.0 | 0.00 | 0.00 | 0.00 | 60 | 1016.9 |
| 20260903220108 | 77 | 292 | 2.0 | 4.0 | 0.00 | 0.00 | 0.00 | 60 | 1017.1 |
| 20260903215842 | 77 | 292 | 2.0 | 4.0 | 0.00 | 0.00 | 0.00 | 61 | 1017.1 |
| 20260903215644 | 77 | 292 | 2.0 | 4.0 | 0.00 | 0.00 | 0.00 | 60 | 1017.2 |
| 20260903215443 | 78 | 292 | 2.0 | 4.0 | 0.00 | 0.00 | 0.00 | 59 | 1017.2 |
| 20260903215243 | 78 | 292 | 2.0 | 4.0 | 0.00 | 0.00 | 0.00 | 60 | 1017.2 |
| 20260903215047 | 78 | 292 | 3.0 | 4.0 | 0.00 | 0.00 | 0.00 | 59 | 1017.2 |
| 20260903214842 | 78 | 292 | 3.0 | 4.0 | 0.00 | 0.00 | 0.00 | 59 | 1017.2 |
| 20260903214644 | 78 | 292 | 3.0 | 4.0 | 0.00 | 0.00 | 0.00 | 59 | 1017.2 |
| 20260903214442 | 78 | 292 | 2.0 | 2.0 | 0.00 | 0.00 | 0.00 | 60 | 1017.3 |
| 20260903213945 | 77 | 315 | 2.0 | 2.0 | 0.00 | 0.00 | 0.00 | 60 | 1017.1 |
| 20260903213741 | 77 | 315 | 0.0 | 0.0 | 0.00 | 0.00 | 0.00 | 60 | 1017.0 |
| 20260903213546 | 77 | 270 | 0.0 | 0.0 | 0.00 | 0.00 | 0.00 | 60 | 1017.0 |
| 20260903213344 | 78 | 315 | 0.0 | 0.0 | 0.00 | 0.00 | 0.00 | 59 | 1017.0 |
| 20260903213144 | 78 | 315 | 0.0 | 0.0 | 0.00 | 0.00 | 0.00 | 59 | 1017.1 |
| 20260903212942 | 78 | 270 | 0.0 | 0.0 | 0.00 | 0.00 | 0.00 | 59 | 1017.0 |
| 20260903212744 | 78 | 315 | 0.0 | 0.0 | 0.00 | 0.00 | 0.00 | 59 | 1017.1 |
| 20260903212548 | 79 | 292 | 2.0 | 2.0 | 0.00 | 0.00 | 0.00 | 58 | 1017.0 |
| 20260903212342 | 79 | 292 | 2.0 | 2.0 | 0.00 | 0.00 | 0.00 | 58 | 1017.0 |
| 20260903212142 | 79 | 315 | 3.0 | 6.0 | 0.00 | 0.00 | 0.00 | 58 | 1016.9 |
| 20260903211942 | 79 | 315 | 2.0 | 2.0 | 0.00 | 0.00 | 0.00 | 58 | 1016.9 |
| 20260903211743 | 79 | 292 | 3.0 | 4.0 | 0.00 | 0.00 | 0.00 | 57 | 1016.8 |
| 20260903211548 | 79 | 292 | 2.0 | 6.0 | 0.00 | 0.00 | 0.00 | 57 | 1016.8 |
| 20260903211344 | 79 | 292 | 2.0 | 4.0 | 0.00 | 0.00 | 0.00 | 57 | 1017.0 |
| 20260903211153 | 79 | 315 | 3.0 | 6.0 | 0.00 | 0.00 | 0.00 | 57 | 1016.9 |
| 20260903210743 | 79 | 292 | 5.0 | 7.0 | 0.00 | 0.00 | 0.00 | 57 | 1016.8 |
| 20260903210545 | 79 | 292 | 4.0 | 8.0 | 0.00 | 0.00 | 0.00 | 58 | 1016.8 |
| 20260903210343 | 78 | 292 | 5.0 | 7.0 | 0.00 | 0.00 | 0.00 | 59 | 1016.7 |
| 20260903210152 | 78 | 292 | 4.0 | 6.0 | 0.00 | 0.00 | 0.00 | 60 | 1016.8 |
| 20260903205743 | 77 | 292 | 2.0 | 4.0 | 0.00 | 0.00 | 0.00 | 63 | 1016.8 |
| 20260903205549 | 76 | 292 | 4.0 | 4.0 | 0.00 | 0.00 | 0.00 | 64 | 1016.8 |
| 20260903205343 | 76 | 292 | 3.0 | 4.0 | 0.00 | 0.00 | 0.00 | 66 | 1016.7 |
| 20260903205142 | 75 | 292 | 2.0 | 4.0 | 0.00 | 0.00 | 0.00 | 67 | 1016.8 |
| 20260903204944 | 75 | 315 | 0.0 | 2.0 | 0.00 | 0.00 | 0.00 | 69 | 1017.0 |
| 20260903204742 | 75 | 315 | 0.0 | 2.0 | 0.00 | 0.00 | 0.00 | 68 | 1016.8 |
| 20260903204548 | 76 | 315 | 0.0 | 0.0 | 0.00 | 0.00 | 0.00 | 68 | 1016.8 |
| 20260903204343 | 76 | 315 | 0.0 | 0.0 | 0.00 | 0.00 | 0.00 | 68 | 1017.0 |
| 20260903204146 | 76 | 338 | 0.0 | 0.0 | 0.00 | 0.00 | 0.00 | 67 | 1016.9 |
| 20260903203946 | 76 | 315 | 0.0 | 0.0 | 0.00 | 0.00 | 0.00 | 67 | 1017.0 |
| 20260903203743 | 76 | 315 | 0.0 | 0.0 | 0.00 | 0.00 | 0.00 | 66 | 1017.0 |
| 20260903203545 | 76 | 315 | 0.0 | 0.0 | 0.00 | 0.00 | 0.00 | 66 | 1016.9 |
| 20260903203343 | 76 | 315 | 0.0 | 0.0 | 0.00 | 0.00 | 0.00 | 66 | 1016.9 |
| 20260903203143 | 76 | 315 | 0.0 | 0.0 | 0.00 | 0.00 | 0.00 | 66 | 1016.6 |
| 20260903202944 | 77 | 315 | 0.0 | 0.0 | 0.00 | 0.00 | 0.00 | 65 | 1016.9 |
| 20260903202743 | 77 | 315 | 0.0 | 0.0 | 0.00 | 0.00 | 0.00 | 65 | 1016.8 |
| 20260903202344 | 77 | 338 | 0.0 | 2.0 | 0.00 | 0.00 | 0.00 | 64 | 1016.8 |
| 20260903202143 | 77 | 338 | 0.0 | 0.0 | 0.00 | 0.00 | 0.00 | 64 | 1016.6 |
| 20260903201943 | 77 | 338 | 0.0 | 0.0 | 0.00 | 0.00 | 0.00 | 64 | 1016.6 |
| 20260903201744 | 78 | 338 | 0.0 | 0.0 | 0.00 | 0.00 | 0.00 | 64 | 1016.5 |
| 20260903201549 | 78 | 315 | 0.0 | 2.0 | 0.00 | 0.00 | 0.00 | 63 | 1016.7 |
| 20260903201343 | 78 | 315 | 0.0 | 0.0 | 0.00 | 0.00 | 0.00 | 63 | 1016.6 |
| 20260903201151 | 78 | 0 | 0.0 | 0.0 | 0.00 | 0.00 | 0.00 | 63 | 1016.4 |
| 20260903200946 | 78 | 0 | 0.0 | 2.0 | 0.00 | 0.00 | 0.00 | 62 | 1016.5 |
| 20260903200743 | 78 | 338 | 0.0 | 0.0 | 0.00 | 0.00 | 0.00 | 62 | 1016.6 |
| 20260903200548 | 78 | 292 | 1.0 | 2.0 | 0.00 | 0.00 | 0.00 | 62 | 1016.5 |
| 20260903200343 | 78 | 292 | 0.0 | 0.0 | 0.00 | 0.00 | 0.00 | 62 | 1016.4 |
| 20260903200143 | 78 | 292 | 0.0 | 2.0 | 0.00 | 0.00 | 0.00 | 62 | 1016.7 |
| 20260903195944 | 78 | 315 | 2.0 | 4.0 | 0.00 | 0.00 | 0.00 | 62 | 1016.7 |
| 20260903195744 | 78 | 315 | 2.0 | 4.0 | 0.00 | 0.00 | 0.00 | 62 | 1016.6 |
| 20260903195550 | 78 | 292 | 2.0 | 2.0 | 0.00 | 0.00 | 0.00 | 62 | 1016.5 |
| 20260903195344 | 79 | 248 | 2.0 | 2.0 | 0.00 | 0.00 | 0.00 | 61 | 1016.3 |
| 20260903195143 | 79 | 270 | 2.0 | 2.0 | 0.00 | 0.00 | 0.00 | 60 | 1016.4 |
| 20260903194945 | 79 | 270 | 3.0 | 4.0 | 0.00 | 0.00 | 0.00 | 59 | 1016.4 |
| 20260903194744 | 80 | 270 | 3.0 | 4.0 | 0.00 | 0.00 | 0.00 | 58 | 1016.3 |
| 20260903194550 | 80 | 292 | 3.0 | 4.0 | 0.00 | 0.00 | 0.00 | 58 | 1016.2 |
| 20260903194344 | 80 | 270 | 3.0 | 4.0 | 0.00 | 0.00 | 0.00 | 57 | 1016.2 |
| 20260903194143 | 80 | 292 | 2.0 | 4.0 | 0.00 | 0.00 | 0.00 | 57 | 1016.3 |
| 20260903193946 | 80 | 292 | 2.0 | 4.0 | 0.00 | 0.00 | 0.00 | 56 | 1016.2 |
| 20260903193745 | 80 | 292 | 3.0 | 4.0 | 0.00 | 0.00 | 0.00 | 56 | 1016.1 |
| 20260903193547 | 80 | 292 | 4.0 | 6.0 | 0.00 | 0.00 | 0.00 | 55 | 1016.1 |
| 20260903193344 | 80 | 292 | 3.0 | 4.0 | 0.00 | 0.00 | 0.00 | 56 | 1016.2 |
| 20260903193145 | 80 | 270 | 2.0 | 4.0 | 0.00 | 0.00 | 0.00 | 56 | 1016.1 |
| 20260903192944 | 79 | 292 | 2.0 | 4.0 | 0.00 | 0.00 | 0.00 | 56 | 1016.2 |
| 20260903192746 | 79 | 270 | 3.0 | 4.0 | 0.00 | 0.00 | 0.00 | 57 | 1016.1 |
| 20260903192550 | 80 | 292 | 2.0 | 2.0 | 0.00 | 0.00 | 0.00 | 57 | 1016.1 |
| 20260903192344 | 79 | 292 | 3.0 | 4.0 | 0.00 | 0.00 | 0.00 | 56 | 1016.3 |
| 20260903192144 | 79 | 315 | 3.0 | 4.0 | 0.00 | 0.00 | 0.00 | 57 | 1016.3 |
| 20260903191944 | 79 | 292 | 3.0 | 4.0 | 0.00 | 0.00 | 0.00 | 57 | 1016.2 |
| 20260903191743 | 79 | 292 | 2.0 | 4.0 | 0.00 | 0.00 | 0.00 | 57 | 1016.1 |
| 20260903191549 | 79 | 315 | 2.0 | 2.0 | 0.00 | 0.00 | 0.00 | 58 | 1016.3 |
| 20260903191344 | 78 | 292 | 2.0 | 4.0 | 0.00 | 0.00 | 0.00 | 58 | 1016.2 |
| 20260903191144 | 78 | 292 | 2.0 | 2.0 | 0.00 | 0.00 | 0.00 | 60 | 1016.2 |
| 20260903190743 | 78 | 292 | 1.0 | 2.0 | 0.00 | 0.00 | 0.00 | 61 | 1016.1 |
| 20260903190546 | 78 | 270 | 2.0 | 2.0 | 0.00 | 0.00 | 0.00 | 61 | 1016.4 |
| 20260903190342 | 78 | 292 | 2.0 | 2.0 | 0.00 | 0.00 | 0.00 | 62 | 1016.1 |
| 20260903190148 | 78 | 292 | 2.0 | 2.0 | 0.00 | 0.00 | 0.00 | 62 | 1016.1 |
| 20260903185943 | 78 | 292 | 2.0 | 2.0 | 0.00 | 0.00 | 0.00 | 62 | 1016.1 |
| 20260903185743 | 78 | 292 | 2.0 | 2.0 | 0.00 | 0.00 | 0.00 | 62 | 1016.0 |
| 20260903185549 | 78 | 292 | 2.0 | 2.0 | 0.00 | 0.00 | 0.00 | 62 | 1016.1 |
| 20260903185345 | 78 | 292 | 2.0 | 2.0 | 0.00 | 0.00 | 0.00 | 62 | 1016.1 |
| 20260903184945 | 79 | 270 | 2.0 | 2.0 | 0.00 | 0.00 | 0.00 | 59 | 1016.0 |
| 20260903184745 | 79 | 292 | 2.0 | 2.0 | 0.00 | 0.00 | 0.00 | 59 | 1015.9 |
| 20260903184551 | 78 | 292 | 2.0 | 2.0 | 0.00 | 0.00 | 0.00 | 59 | 1016.0 |
| 20260903184343 | 78 | 292 | 2.0 | 2.0 | 0.00 | 0.00 | 0.00 | 60 | 1015.9 |
| 20260903183946 | 78 | 292 | 2.0 | 2.0 | 0.00 | 0.00 | 0.00 | 61 | 1016.0 |
| 20260903183744 | 78 | 292 | 2.0 | 2.0 | 0.00 | 0.00 | 0.00 | 62 | 1016.0 |
| 20260903183546 | 78 | 292 | 2.0 | 2.0 | 0.00 | 0.00 | 0.00 | 63 | 1015.8 |
| 20260903183343 | 79 | 292 | 1.0 | 2.0 | 0.00 | 0.00 | 0.00 | 63 | 1015.8 |
| 20260903183143 | 79 | 292 | 1.0 | 2.0 | 0.00 | 0.00 | 0.00 | 63 | 1016.0 |
| 20260903182946 | 80 | 292 | 1.0 | 2.0 | 0.00 | 0.00 | 0.00 | 62 | 1015.9 |
| 20260903182745 | 80 | 292 | 0.0 | 0.0 | 0.00 | 0.00 | 0.00 | 61 | 1015.8 |
| 20260903182347 | 81 | 292 | 0.0 | 2.0 | 0.00 | 0.00 | 0.00 | 58 | 1015.7 |
| 20260903182143 | 81 | 315 | 1.0 | 2.0 | 0.00 | 0.00 | 0.00 | 56 | 1015.6 |
| 20260903181944 | 81 | 292 | 1.0 | 2.0 | 0.00 | 0.00 | 0.00 | 55 | 1015.6 |
| 20260903181743 | 81 | 315 | 1.0 | 2.0 | 0.00 | 0.00 | 0.00 | 53 | 1015.7 |
| 20260903181550 | 81 | 338 | 0.0 | 0.0 | 0.00 | 0.00 | 0.00 | 54 | 1015.5 |
| 20260903181344 | 81 | 338 | 0.0 | 0.0 | 0.00 | 0.00 | 0.00 | 54 | 1015.8 |
| 20260903181143 | 81 | 338 | 0.0 | 0.0 | 0.00 | 0.00 | 0.00 | 53 | 1015.5 |
| 20260903180944 | 82 | 0 | 0.0 | 0.0 | 0.00 | 0.00 | 0.00 | 55 | 1015.7 |
| 20260903180743 | 82 | 0 | 0.0 | 0.0 | 0.00 | 0.00 | 0.00 | 52 | 1015.4 |
| 20260903180547 | 82 | 0 | 0.0 | 0.0 | 0.00 | 0.00 | 0.00 | 52 | 1015.3 |
| 20260903180344 | 82 | 0 | 0.0 | 0.0 | 0.00 | 0.00 | 0.00 | 52 | 1015.5 |
| 20260903180144 | 83 | 0 | 0.0 | 2.0 | 0.00 | 0.00 | 0.00 | 51 | 1015.4 |
| 20260903175944 | 83 | 338 | 0.0 | 0.0 | 0.00 | 0.00 | 0.00 | 52 | 1015.4 |
| 20260903175742 | 83 | 338 | 1.0 | 2.0 | 0.00 | 0.00 | 0.00 | 50 | 1015.4 |
| 20260903175559 | 83 | 0 | 0.0 | 0.0 | 0.00 | 0.00 | 0.00 | 51 | 1015.5 |
| 20260903175347 | 83 | 338 | 0.0 | 0.0 | 0.00 | 0.00 | 0.00 | 50 | 1015.3 |
| 20260903175142 | 83 | 0 | 1.0 | 4.0 | 0.00 | 0.00 | 0.00 | 49 | 1015.1 |
| 20260903174942 | 83 | 0 | 0.0 | 0.0 | 0.00 | 0.00 | 0.00 | 49 | 1015.3 |
| 20260903174745 | 83 | 0 | 0.0 | 2.0 | 0.00 | 0.00 | 0.00 | 49 | 1015.2 |
| 20260903174559 | 84 | 338 | 0.0 | 0.0 | 0.00 | 0.00 | 0.00 | 49 | 1015.1 |
| 20260903174342 | 84 | 338 | 0.0 | 2.0 | 0.00 | 0.00 | 0.00 | 49 | 1015.1 |
| 20260903174143 | 84 | 315 | 1.0 | 2.0 | 0.00 | 0.00 | 0.00 | 48 | 1015.2 |
| 20260903173945 | 85 | 338 | 0.0 | 2.0 | 0.00 | 0.00 | 0.00 | 47 | 1015.1 |
| 20260903173546 | 85 | 0 | 1.0 | 2.0 | 0.00 | 0.00 | 0.00 | 46 | 1015.2 |
| 20260903173345 | 85 | 338 | 1.0 | 2.0 | 0.00 | 0.00 | 0.00 | 46 | 1015.3 |
| 20260903173143 | 85 | 0 | 1.0 | 2.0 | 0.00 | 0.00 | 0.00 | 45 | 1015.3 |
| 20260903172744 | 86 | 338 | 0.0 | 2.0 | 0.00 | 0.00 | 0.00 | 45 | 1015.2 |
| 20260903172553 | 86 | 338 | 2.0 | 4.0 | 0.00 | 0.00 | 0.00 | 44 | 1015.1 |
| 20260903172343 | 86 | 45 | 1.0 | 2.0 | 0.00 | 0.00 | 0.00 | 44 | 1015.1 |
| 20260903171742 | 87 | 338 | 2.0 | 4.0 | 0.00 | 0.00 | 0.00 | 43 | 1015.0 |
| 20260903171549 | 87 | 22 | 2.0 | 4.0 | 0.00 | 0.00 | 0.00 | 43 | 1014.9 |
| 20260903171343 | 87 | 338 | 2.0 | 4.0 | 0.00 | 0.00 | 0.00 | 43 | 1014.8 |
| 20260903171144 | 87 | 0 | 3.0 | 4.0 | 0.00 | 0.00 | 0.00 | 43 | 1014.9 |
| 20260903170945 | 88 | 0 | 1.0 | 2.0 | 0.00 | 0.00 | 0.00 | 43 | 1014.9 |
| 20260903170743 | 88 | 0 | 2.0 | 4.0 | 0.00 | 0.00 | 0.00 | 42 | 1014.9 |
| 20260903170547 | 88 | 248 | 2.0 | 4.0 | 0.00 | 0.00 | 0.00 | 42 | 1014.9 |
| 20260903170343 | 88 | 338 | 2.0 | 6.0 | 0.00 | 0.00 | 0.00 | 41 | 1015.1 |
| 20260903170144 | 88 | 22 | 2.0 | 4.0 | 0.00 | 0.00 | 0.00 | 41 | 1014.8 |
| 20260903165943 | 89 | 22 | 2.0 | 4.0 | 0.00 | 0.00 | 0.00 | 41 | 1014.9 |
| 20260903165550 | 89 | 338 | 2.0 | 4.0 | 0.00 | 0.00 | 0.00 | 41 | 1014.9 |
| 20260903165343 | 89 | 22 | 3.0 | 7.0 | 0.00 | 0.00 | 0.00 | 40 | 1014.7 |
| 20260903165144 | 89 | 45 | 4.0 | 11.0 | 0.00 | 0.00 | 0.00 | 39 | 1014.8 |
| 20260903164943 | 89 | 22 | 3.0 | 4.0 | 0.00 | 0.00 | 0.00 | 40 | 1014.9 |
| 20260903164741 | 89 | 45 | 2.0 | 4.0 | 0.00 | 0.00 | 0.00 | 40 | 1014.8 |
| 20260903163945 | 90 | 0 | 5.0 | 11.0 | 0.00 | 0.00 | 0.00 | 38 | 1014.6 |
| 20260903163806 | 90 | 22 | 2.0 | 4.0 | 0.00 | 0.00 | 0.00 | 39 | 1014.7 |
| 20260903163546 | 90 | 292 | 4.0 | 8.0 | 0.00 | 0.00 | 0.00 | 38 | 1014.7 |
| 20260903163341 | 90 | 315 | 2.0 | 6.0 | 0.00 | 0.00 | 0.00 | 38 | 1014.7 |
| 20260903163144 | 90 | 338 | 3.0 | 4.0 | 0.00 | 0.00 | 0.00 | 38 | 1014.7 |
| 20260903162943 | 91 | 315 | 2.0 | 4.0 | 0.00 | 0.00 | 0.00 | 38 | 1014.6 |
| 20260903162549 | 91 | 315 | 2.0 | 4.0 | 0.00 | 0.00 | 0.00 | 37 | 1014.6 |
| 20260903162343 | 91 | 338 | 2.0 | 4.0 | 0.00 | 0.00 | 0.00 | 37 | 1014.6 |
| 20260903162143 | 91 | 338 | 2.0 | 4.0 | 0.00 | 0.00 | 0.00 | 37 | 1014.7 |
| 20260903161744 | 91 | 45 | 2.0 | 4.0 | 0.00 | 0.00 | 0.00 | 36 | 1014.7 |
| 20260903161549 | 92 | 22 | 3.0 | 7.0 | 0.00 | 0.00 | 0.00 | 36 | 1014.5 |
| 20260903161144 | 92 | 45 | 4.0 | 8.0 | 0.00 | 0.00 | 0.00 | 36 | 1014.5 |
| 20260903160944 | 92 | 22 | 3.0 | 7.0 | 0.00 | 0.00 | 0.00 | 36 | 1014.5 |
| 20260903160546 | 92 | 315 | 2.0 | 6.0 | 0.00 | 0.00 | 0.00 | 37 | 1014.4 |
| 20260903160342 | 92 | 315 | 2.0 | 4.0 | 0.00 | 0.00 | 0.00 | 37 | 1014.5 |
| 20260903160143 | 92 | 135 | 2.0 | 4.0 | 0.00 | 0.00 | 0.00 | 37 | 1014.3 |
| 20260903155942 | 92 | 248 | 2.0 | 4.0 | 0.00 | 0.00 | 0.00 | 37 | 1014.5 |
| 20260903155743 | 92 | 0 | 3.0 | 7.0 | 0.00 | 0.00 | 0.00 | 37 | 1014.4 |
| 20260903155549 | 92 | 315 | 4.0 | 8.0 | 0.00 | 0.00 | 0.00 | 36 | 1014.3 |
| 20260903155344 | 92 | 338 | 4.0 | 8.0 | 0.00 | 0.00 | 0.00 | 37 | 1014.5 |
| 20260903155144 | 92 | 292 | 2.0 | 4.0 | 0.00 | 0.00 | 0.00 | 36 | 1014.3 |